GUARANISAT-1

Last updated on Wed Jul 06 2022 00:02:05 GMT+0000 (Coordinated Universal Time)

1 47931U 98067SH 22185.91280436 .06972440 12364-4 70134-3 0 9995 2 47931 51.6128 206.4904 0003538 317.0160 43.0588 16.37231343 74610

Satellite not in orbit